• In Uzbekistan
  • List of Countries
  • For 7 days
  • Water Temperature
  • Satellite Maps
  • Weather Map
  • Weather Widgets
  • user-avatar
    Login

    Hourly Weather Jewłach

    Today, 30 April, Sunday

    Time Temperature Precipitation Wind Pressure Humidity
    00:00 +13°C° 0 mm 1 mps 762 mmHg 71%
    01:00 +13°C° 0 mm 1 mps 762 mmHg 73%
    02:00 +12°C° 0 mm 1 mps 762 mmHg 74%
    03:00 +12°C° 0 mm 1 mps 761 mmHg 76%
    04:00 +13°C° 0 mm 1 mps 761 mmHg 73%
    05:00 +14°C° 0 mm 1 mps 762 mmHg 69%
    06:00 +15°C° 0 mm 1 mps 762 mmHg 66%
    07:00 +17°C° 0 mm 2 mps 761 mmHg 59%
    08:00 +19°C° 0 mm 2 mps 761 mmHg 51%
    09:00 +23°C° 0 mm 2 mps 761 mmHg 42%
    10:00 +24°C° 0 mm 1 mps 761 mmHg 40%
    11:00 +25°C° 0 mm 1 mps 760 mmHg 37%
    12:00 +27°C° 0 mm 1 mps 760 mmHg 35%
    13:00 +27°C° 0 mm 1 mps 760 mmHg 34%
    14:00 +28°C° 0 mm 1 mps 759 mmHg 33%
    15:00 +27°C° 0 mm 1 mps 759 mmHg 34%
    16:00 +26°C° 0.1 mm 1 mps 759 mmHg 39%
    17:00 +25°C° 0.1 mm 1 mps 759 mmHg 44%
    18:00 +25°C° 0.1 mm 1 mps 759 mmHg 49%
    19:00 +23°C° 0 mm 1 mps 760 mmHg 50%
    20:00 +21°C° 0 mm 1 mps 760 mmHg 52%
    21:00 +18°C° 0 mm 2 mps 760 mmHg 53%
    22:00 +18°C° 0 mm 1 mps 760 mmHg 56%
    23:00 +18°C° 0 mm 1 mps 761 mmHg 58%

    Tomorrow, 1 May, Monday

    Time Temperature Precipitation Wind Pressure Humidity
    00:00 +16°C° 0 mm 1 mps 761 mmHg 60%
    01:00 +16°C° 0 mm 1 mps 761 mmHg 61%
    02:00 +15°C° 0 mm 1 mps 761 mmHg 62%
    03:00 +15°C° 0 mm 1 mps 760 mmHg 63%
    04:00 +16°C° 0 mm 1 mps 761 mmHg 59%
    05:00 +17°C° 0 mm 2 mps 761 mmHg 56%
    06:00 +18°C° 0 mm 2 mps 761 mmHg 52%
    07:00 +20°C° 0 mm 2 mps 761 mmHg 45%
    08:00 +23°C° 0 mm 2 mps 761 mmHg 37%
    09:00 +26°C° 0 mm 3 mps 760 mmHg 29%
    10:00 +27°C° 0 mm 2 mps 760 mmHg 28%
    11:00 +28°C° 0 mm 2 mps 760 mmHg 26%
    12:00 +29°C° 0 mm 1 mps 760 mmHg 25%
    13:00 +30°C° 0 mm 1 mps 759 mmHg 24%
    14:00 +31°C° 0 mm 1 mps 759 mmHg 24%
    15:00 +29°C° 0 mm 0 mps 759 mmHg 23%
    16:00 +30°C° 0 mm 1 mps 759 mmHg 27%
    17:00 +28°C° 0 mm 1 mps 759 mmHg 31%
    18:00 +27°C° 0 mm 1 mps 759 mmHg 36%
    19:00 +25°C° 0 mm 2 mps 760 mmHg 36%
    20:00 +24°C° 0 mm 2 mps 760 mmHg 37%
    21:00 +21°C° 0 mm 2 mps 761 mmHg 38%
    22:00 +20°C° 0 mm 2 mps 761 mmHg 41%
    23:00 +20°C° 0 mm 2 mps 761 mmHg 44%

    Day after tomorrow, 2 May, Tuesday

    Time Temperature Precipitation Wind Pressure Humidity
    00:00 +19°C° 0 mm 2 mps 761 mmHg 48%
    01:00 +19°C° 0 mm 2 mps 761 mmHg 50%
    02:00 +19°C° 0 mm 1 mps 761 mmHg 52%
    03:00 +19°C° 0 mm 1 mps 761 mmHg 54%
    04:00 +19°C° 0 mm 1 mps 761 mmHg 54%
    05:00 +20°C° 0 mm 1 mps 761 mmHg 55%
    06:00 +20°C° 0 mm 1 mps 761 mmHg 55%
    07:00 +22°C° 0 mm 1 mps 761 mmHg 48%
    08:00 +24°C° 0 mm 1 mps 761 mmHg 41%
    09:00 +27°C° 0 mm 1 mps 761 mmHg 34%
    10:00 +28°C° 0 mm 2 mps 760 mmHg 32%
    11:00 +29°C° 0 mm 2 mps 760 mmHg 30%
    12:00 +30°C° 0 mm 2 mps 759 mmHg 28%
    13:00 +31°C° 0 mm 3 mps 759 mmHg 27%
    14:00 +31°C° 0 mm 3 mps 759 mmHg 27%
    15:00 +31°C° 0 mm 3 mps 758 mmHg 27%
    16:00 +30°C° 0 mm 3 mps 758 mmHg 30%
    17:00 +29°C° 0 mm 3 mps 758 mmHg 34%
    18:00 +27°C° 0 mm 2 mps 758 mmHg 37%
    19:00 +26°C° 0 mm 2 mps 759 mmHg 38%
    20:00 +25°C° 0 mm 2 mps 759 mmHg 38%
    21:00 +23°C° 0 mm 2 mps 759 mmHg 38%
    22:00 +23°C° 0 mm 2 mps 759 mmHg 40%
    23:00 +21°C° 0 mm 2 mps 759 mmHg 41%

    3 May, Wednesday

    Time Temperature Precipitation Wind Pressure Humidity
    00:00 +21°C° 0 mm 1 mps 758 mmHg 43%
    01:00 +21°C° 0 mm 1 mps 758 mmHg 44%
    02:00 +21°C° 0 mm 1 mps 758 mmHg 44%
    03:00 +20°C° 0 mm 1 mps 757 mmHg 45%
    04:00 +21°C° 0 mm 1 mps 757 mmHg 46%
    05:00 +21°C° 0 mm 1 mps 757 mmHg 47%
    06:00 +21°C° 0 mm 1 mps 757 mmHg 47%
    07:00 +23°C° 0 mm 2 mps 757 mmHg 42%
    08:00 +25°C° 0 mm 2 mps 757 mmHg 37%
    09:00 +26°C° 0 mm 2 mps 757 mmHg 32%
    10:00 +27°C° 0.1 mm 2 mps 757 mmHg 32%
    11:00 +28°C° 0.1 mm 2 mps 756 mmHg 31%
    12:00 +30°C° 0.1 mm 2 mps 756 mmHg 30%
    13:00 +30°C° 0.2 mm 2 mps 756 mmHg 30%
    14:00 +30°C° 0.2 mm 2 mps 755 mmHg 31%
    15:00 +31°C° 0.2 mm 1 mps 755 mmHg 31%
    16:00 +29°C° 0 mm 2 mps 755 mmHg 34%
    17:00 +28°C° 0 mm 2 mps 755 mmHg 38%
    18:00 +27°C° 0 mm 2 mps 755 mmHg 42%
    19:00 +25°C° 0.8 mm 2 mps 756 mmHg 46%
    20:00 +24°C° 0.8 mm 2 mps 756 mmHg 50%
    21:00 +21°C° 0.8 mm 2 mps 757 mmHg 55%
    22:00 +20°C° 0.6 mm 2 mps 757 mmHg 55%
    23:00 +20°C° 0.6 mm 2 mps 757 mmHg 56%

    4 May, Thursday

    Time Temperature Precipitation Wind Pressure Humidity
    00:00 +19°C° 0.6 mm 2 mps 757 mmHg 57%
    01:00 +19°C° 0.2 mm 2 mps 757 mmHg 58%
    02:00 +18°C° 0.2 mm 2 mps 757 mmHg 59%
    03:00 +18°C° 0.2 mm 2 mps 757 mmHg 60%
    04:00 +18°C° 0 mm 2 mps 757 mmHg 59%
    05:00 +19°C° 0 mm 3 mps 757 mmHg 57%
    06:00 +19°C° 0 mm 3 mps 757 mmHg 55%
    07:00 +21°C° 0 mm 4 mps 757 mmHg 50%
    08:00 +23°C° 0 mm 4 mps 757 mmHg 44%
    09:00 +26°C° 0 mm 5 mps 757 mmHg 39%
    10:00 +27°C° 0 mm 5 mps 756 mmHg 36%
    11:00 +28°C° 0 mm 4 mps 756 mmHg 34%
    12:00 +30°C° 0 mm 4 mps 756 mmHg 32%
    13:00 +30°C° 0 mm 4 mps 756 mmHg 31%
    14:00 +30°C° 0 mm 3 mps 755 mmHg 30%
    15:00 +30°C° 0 mm 2 mps 755 mmHg 30%
    16:00 +29°C° 0.1 mm 2 mps 755 mmHg 35%
    17:00 +28°C° 0.1 mm 2 mps 756 mmHg 40%
    18:00 +26°C° 0.1 mm 2 mps 756 mmHg 46%
    19:00 +25°C° 0 mm 2 mps 757 mmHg 46%
    20:00 +23°C° 0 mm 2 mps 757 mmHg 47%
    21:00 +21°C° 0 mm 3 mps 758 mmHg 47%
    22:00 +20°C° 0 mm 2 mps 758 mmHg 50%
    23:00 +19°C° 0 mm 2 mps 758 mmHg 52%

    5 May, Friday

    Time Temperature Precipitation Wind Pressure Humidity
    00:00 +19°C° 0 mm 1 mps 758 mmHg 55%
    01:00 +18°C° 0 mm 1 mps 758 mmHg 56%
    02:00 +18°C° 0 mm 1 mps 758 mmHg 57%
    03:00 +16°C° 0 mm 1 mps 758 mmHg 58%
    04:00 +18°C° 0 mm 1 mps 759 mmHg 58%
    05:00 +19°C° 0 mm 1 mps 759 mmHg 57%
    06:00 +20°C° 0 mm 1 mps 759 mmHg 56%
    07:00 +21°C° 0 mm 2 mps 759 mmHg 51%
    08:00 +24°C° 0 mm 2 mps 759 mmHg 46%
    09:00 +25°C° 0 mm 2 mps 759 mmHg 40%
    10:00 +26°C° 0 mm 2 mps 758 mmHg 38%
    11:00 +28°C° 0 mm 2 mps 758 mmHg 37%
    12:00 +29°C° 0 mm 1 mps 758 mmHg 35%
    13:00 +29°C° 0 mm 1 mps 757 mmHg 35%
    14:00 +29°C° 0 mm 1 mps 757 mmHg 34%
    15:00 +30°C° 0 mm 1 mps 757 mmHg 34%
    16:00 +29°C° 0 mm 2 mps 757 mmHg 37%
    17:00 +28°C° 0 mm 2 mps 757 mmHg 41%
    18:00 +27°C° 0 mm 3 mps 758 mmHg 44%
    19:00 +25°C° 0.1 mm 3 mps 758 mmHg 50%
    20:00 +22°C° 0.1 mm 4 mps 758 mmHg 56%
    21:00 +20°C° 0.1 mm 5 mps 759 mmHg 62%
    22:00 +19°C° 0.2 mm 3 mps 759 mmHg 65%
    23:00 +18°C° 0.2 mm 2 mps 759 mmHg 68%
    Show more